Time,TemperatureF,DewpointF,PressureIn,WindDirection,WindDirectionDegrees,WindSpeedMPH,WindSpeedGustMPH,Humidity,HourlyPrecipIn,Conditions,Clouds,dailyrainin,SoftwareType,DateUTC
2013-04-25 00:03:00,52.8,44.7,29.81,SSW,209,19.6,19.6,74,0.00,CLR,,0.00,WeatherDisplay:10.37,2013-04-25 07:03:00,
2013-04-25 00:08:00,52.7,45.0,29.80,SW,223,17.3,17.3,75,0.00,CLR,,0.00,WeatherDisplay:10.37,2013-04-25 07:08:00,
2013-04-25 00:13:00,52.6,45.2,29.80,SW,230,18.4,18.4,76,0.00,CLR,,0.00,WeatherDisplay:10.37,2013-04-25 07:13:00,
2013-04-25 00:18:00,52.4,45.1,29.81,WSW,251,17.3,17.3,76,0.00,CLR,,0.00,WeatherDisplay:10.37,2013-04-25 07:18:00,
2013-04-25 00:23:00,52.4,45.1,29.81,West,260,17.3,17.3,76,0.00,CLR,,0.00,WeatherDisplay:10.37,2013-04-25 07:23:00,
2013-04-25 00:28:00,52.3,45.0,29.81,SW,232,12.7,12.7,76,0.00,CLR,,0.00,WeatherDisplay:10.37,2013-04-25 07:28:00,
2013-04-25 00:33:00,52.2,44.9,29.82,WSW,237,6.9,6.9,76,0.00,CLR,,0.00,WeatherDisplay:10.37,2013-04-25 07:33:00,
2013-04-25 00:38:00,52.2,45.2,29.82,WSW,257,12.7,12.7,77,0.00,CLR,,0.00,WeatherDisplay:10.37,2013-04-25 07:38:00,
2013-04-25 00:43:00,52.1,45.1,29.81,West,268,13.8,13.8,77,0.00,CLR,,0.00,WeatherDisplay:10.37,2013-04-25 07:43:00,
2013-04-25 00:48:00,52.1,45.1,29.81,WSW,256,11.5,11.5,77,0.00,CLR,,0.00,WeatherDisplay:10.37,2013-04-25 07:48:00,
2013-04-25 00:53:00,52.0,44.7,29.81,WSW,244,10.0,10.0,76,0.00,CLR,,0.00,WeatherDisplay:10.37,2013-04-25 07:53:00,
2013-04-25 00:58:00,52.0,44.7,29.81,West,262,11.5,11.5,76,0.00,CLR,,0.00,WeatherDisplay:10.37,2013-04-25 07:58:00,
2013-04-25 01:03:00,52.0,44.7,29.81,WSW,250,12.0,12.0,76,0.00,CLR,,0.00,WeatherDisplay:10.37,2013-04-25 08:03:00,
2013-04-25 01:08:00,52.0,44.3,29.81,West,261,10.4,10.4,75,0.00,CLR,,0.00,WeatherDisplay:10.37,2013-04-25 08:08:00,
2013-04-25 01:13:00,52.1,44.4,29.81,West,267,10.4,10.4,75,0.00,CLR,,0.00,WeatherDisplay:10.37,2013-04-25 08:13:00,
2013-04-25 01:18:00,52.3,44.3,29.81,West,259,11.5,11.5,74,0.00,CLR,,0.00,WeatherDisplay:10.37,2013-04-25 08:18:00,
2013-04-25 01:23:00,52.3,43.9,29.81,WSW,254,11.5,11.5,73,0.00,CLR,,0.00,WeatherDisplay:10.37,2013-04-25 08:23:00,
2013-04-25 01:28:00,52.3,43.9,29.81,West,260,12.7,12.7,73,0.00,CLR,,0.00,WeatherDisplay:10.37,2013-04-25 08:28:00,
2013-04-25 01:33:00,52.4,43.6,29.80,West,269,9.2,9.2,72,0.00,CLR,,0.00,WeatherDisplay:10.37,2013-04-25 08:33:00,
2013-04-25 01:38:00,52.4,43.6,29.80,WNW,288,7.0,7.0,72,0.00,CLR,,0.00,WeatherDisplay:10.37,2013-04-25 08:38:00,
2013-04-25 01:43:00,52.6,43.5,29.80,West,263,8.1,8.1,71,0.00,CLR,,0.00,WeatherDisplay:10.37,2013-04-25 08:43:00,
2013-04-25 01:48:00,52.6,43.5,29.79,West,279,8.0,8.0,71,0.00,CLR,,0.00,WeatherDisplay:10.37,2013-04-25 08:48:00,
2013-04-25 01:53:00,52.8,43.7,29.79,WNW,300,11.5,11.5,71,0.00,CLR,,0.00,WeatherDisplay:10.37,2013-04-25 08:53:00,
2013-04-25 01:59:00,52.9,43.4,29.79,WNW,296,6.9,6.9,70,0.00,CLR,,0.00,WeatherDisplay:10.37,2013-04-25 08:59:00,
2013-04-25 02:04:00,52.9,43.0,29.78,WNW,287,9.2,9.2,69,0.00,CLR,,0.00,WeatherDisplay:10.37,2013-04-25 09:04:00,
2013-04-25 02:09:00,53.1,43.2,29.78,WNW,286,6.9,6.9,69,0.00,CLR,,0.00,WeatherDisplay:10.37,2013-04-25 09:09:00,
2013-04-25 02:14:00,53.5,43.6,29.77,WNW,284,11.5,11.5,69,0.00,CLR,,0.00,WeatherDisplay:10.37,2013-04-25 09:14:00,
2013-04-25 02:19:00,53.7,43.4,29.77,West,279,9.2,9.2,68,0.00,CLR,,0.00,WeatherDisplay:10.37,2013-04-25 09:19:00,
2013-04-25 02:24:00,53.8,43.9,29.77,West,265,5.8,5.8,69,0.00,CLR,,0.00,WeatherDisplay:10.37,2013-04-25 09:24:00,
2013-04-25 02:29:00,53.7,43.8,29.77,WSW,257,9.2,9.2,69,0.00,CLR,,0.00,WeatherDisplay:10.37,2013-04-25 09:29:00,
2013-04-25 02:34:00,53.4,43.5,29.78,WSW,240,7.0,7.0,69,0.00,CLR,,0.00,WeatherDisplay:10.37,2013-04-25 09:34:00,
2013-04-25 02:39:00,52.5,42.2,29.78,South,177,6.9,6.9,68,0.00,CLR,,0.00,WeatherDisplay:10.37,2013-04-25 09:39:00,
2013-04-25 02:44:00,51.1,41.3,29.78,SSE,167,6.9,6.9,69,0.00,CLR,,0.00,WeatherDisplay:10.37,2013-04-25 09:44:00,
2013-04-25 02:49:00,50.4,41.0,29.78,SSE,167,6.9,6.9,70,0.00,CLR,,0.00,WeatherDisplay:10.37,2013-04-25 09:49:00,
2013-04-25 02:54:00,50.1,41.1,29.78,SSE,167,9.0,9.0,71,0.00,CLR,,0.00,WeatherDisplay:10.37,2013-04-25 09:54:00,
2013-04-25 02:59:00,50.4,41.3,29.78,SSW,209,6.9,6.9,71,0.00,CLR,,0.00,WeatherDisplay:10.37,2013-04-25 09:59:00,
2013-04-25 03:04:00,50.7,41.6,29.78,SW,231,8.1,8.1,71,0.00,CLR,,0.00,WeatherDisplay:10.37,2013-04-25 10:04:00,
2013-04-25 03:09:00,50.7,41.6,29.78,SW,217,5.8,5.8,71,0.00,CLR,,0.00,WeatherDisplay:10.37,2013-04-25 10:09:00,
2013-04-25 03:14:00,50.8,41.7,29.79,SSW,199,6.9,6.9,71,0.00,CLR,,0.00,WeatherDisplay:10.37,2013-04-25 10:14:00,
2013-04-25 03:19:00,50.5,41.8,29.79,South,184,4.0,4.0,72,0.00,CLR,,0.00,WeatherDisplay:10.37,2013-04-25 10:19:00,
2013-04-25 03:24:00,50.3,41.6,29.79,South,184,3.5,3.5,72,0.00,CLR,,0.00,WeatherDisplay:10.37,2013-04-25 10:24:00,
2013-04-25 03:29:00,50.0,41.7,29.79,South,184,4.6,4.6,73,0.00,CLR,,0.00,WeatherDisplay:10.37,2013-04-25 10:29:00,
2013-04-25 03:34:00,49.7,41.4,29.79,South,184,6.9,6.9,73,0.00,CLR,,0.00,WeatherDisplay:10.37,2013-04-25 10:34:00,
2013-04-25 03:39:00,49.9,41.9,29.79,SSW,198,6.9,6.9,74,0.00,CLR,,0.00,WeatherDisplay:10.37,2013-04-25 10:39:00,
2013-04-25 03:44:00,50.0,42.0,29.79,SW,214,10.4,10.4,74,0.00,CLR,,0.00,WeatherDisplay:10.37,2013-04-25 10:44:00,
2013-04-25 03:49:00,49.9,41.9,29.79,SSW,200,5.8,5.8,74,0.00,CLR,,0.00,WeatherDisplay:10.37,2013-04-25 10:49:00,
2013-04-25 03:54:00,49.8,41.8,29.80,South,189,6.9,6.9,74,0.00,CLR,,0.00,WeatherDisplay:10.37,2013-04-25 10:54:00,
2013-04-25 03:59:00,49.7,41.7,29.80,South,189,6.9,6.9,74,0.00,CLR,,0.00,WeatherDisplay:10.37,2013-04-25 10:59:00,
2013-04-25 04:04:00,49.6,42.0,29.81,South,188,4.6,4.6,75,0.00,CLR,,0.00,WeatherDisplay:10.37,2013-04-25 11:04:00,
2013-04-25 04:09:00,49.4,41.5,29.81,South,189,4.6,4.6,74,0.00,CLR,,0.00,WeatherDisplay:10.37,2013-04-25 11:09:00,
2013-04-25 04:14:00,49.4,41.8,29.81,SW,236,5.8,5.8,75,0.00,CLR,,0.00,WeatherDisplay:10.37,2013-04-25 11:14:00,
2013-04-25 04:19:00,50.0,42.7,29.82,SW,214,11.5,11.5,76,0.00,CLR,,0.00,WeatherDisplay:10.37,2013-04-25 11:19:00,
2013-04-25 04:24:00,50.2,42.9,29.82,SSW,211,9.2,9.2,76,0.00,CLR,,0.00,WeatherDisplay:10.37,2013-04-25 11:24:00,
2013-04-25 04:29:00,50.4,43.1,29.82,SW,233,9.2,9.2,76,0.00,CLR,,0.00,WeatherDisplay:10.37,2013-04-25 11:29:00,
2013-04-25 04:34:00,50.5,42.9,29.81,WSW,237,12.7,12.7,75,0.00,CLR,,0.00,WeatherDisplay:10.37,2013-04-25 11:34:00,
2013-04-25 04:39:00,50.5,43.2,29.82,SW,221,11.5,11.5,76,0.00,CLR,,0.00,WeatherDisplay:10.37,2013-04-25 11:39:00,
2013-04-25 04:44:00,50.6,43.3,29.82,SW,234,11.5,11.5,76,0.00,CLR,,0.00,WeatherDisplay:10.37,2013-04-25 11:44:00,
2013-04-25 04:49:00,50.6,43.3,29.82,West,263,11.5,11.5,76,0.00,CLR,,0.00,WeatherDisplay:10.37,2013-04-25 11:49:00,
2013-04-25 04:54:00,50.6,43.3,29.82,WSW,252,10.4,10.4,76,0.00,CLR,,0.00,WeatherDisplay:10.37,2013-04-25 11:54:00,
2013-04-25 04:59:00,50.5,43.2,29.82,SW,232,10.4,10.4,76,0.00,CLR,,0.00,WeatherDisplay:10.37,2013-04-25 11:59:00,
2013-04-25 05:04:00,50.4,43.1,29.84,SW,226,3.5,3.5,76,0.00,CLR,,0.00,WeatherDisplay:10.37,2013-04-25 12:04:00,
2013-04-25 05:09:00,50.2,43.3,29.84,SSW,209,5.8,5.8,77,0.00,CLR,,0.00,WeatherDisplay:10.37,2013-04-25 12:09:00,
2013-04-25 05:14:00,50.1,43.2,29.84,SW,236,6.9,6.9,77,0.00,CLR,,0.00,WeatherDisplay:10.37,2013-04-25 12:14:00,
2013-04-25 05:19:00,50.0,43.1,29.85,SW,219,6.9,6.9,77,0.00,CLR,,0.00,WeatherDisplay:10.37,2013-04-25 12:19:00,
2013-04-25 05:24:00,50.0,43.1,29.84,SW,221,5.8,5.8,77,0.00,CLR,,0.00,WeatherDisplay:10.37,2013-04-25 12:24:00,
2013-04-25 05:29:00,50.0,43.1,29.85,SW,222,4.6,4.6,77,0.00,CLR,,0.00,WeatherDisplay:10.37,2013-04-25 12:29:00,
2013-04-25 05:34:00,50.0,43.4,29.85,SW,233,6.9,6.9,78,0.00,CLR,,0.00,WeatherDisplay:10.37,2013-04-25 12:34:00,
2013-04-25 05:39:00,50.0,43.4,29.85,SW,227,6.9,6.9,78,0.00,CLR,,0.00,WeatherDisplay:10.37,2013-04-25 12:39:00,
2013-04-25 05:44:00,50.1,43.5,29.85,WSW,240,6.9,6.9,78,0.00,CLR,,0.00,WeatherDisplay:10.37,2013-04-25 12:44:00,
2013-04-25 05:49:00,50.0,43.4,29.85,WSW,253,6.9,6.9,78,0.00,CLR,,0.00,WeatherDisplay:10.37,2013-04-25 12:49:00,
2013-04-25 05:54:00,50.0,43.4,29.85,WSW,248,4.6,4.6,78,0.00,CLR,,0.00,WeatherDisplay:10.37,2013-04-25 12:54:00,
2013-04-25 05:59:00,49.9,43.3,29.86,SW,227,5.8,5.8,78,0.00,CLR,,0.00,WeatherDisplay:10.37,2013-04-25 12:59:00,
2013-04-25 06:04:00,49.8,42.9,29.87,WSW,246,5.8,5.8,77,0.00,CLR,,0.00,WeatherDisplay:10.37,2013-04-25 13:04:00,
2013-04-25 06:09:00,49.7,42.8,29.87,SW,235,4.6,4.6,77,0.00,CLR,,0.00,WeatherDisplay:10.37,2013-04-25 13:09:00,
2013-04-25 06:14:00,49.6,42.7,29.88,WSW,237,4.6,4.6,77,0.00,CLR,,0.00,WeatherDisplay:10.37,2013-04-25 13:14:00,
2013-04-25 06:19:00,49.6,43.0,29.88,WSW,243,6.9,6.9,78,0.00,CLR,,0.00,WeatherDisplay:10.37,2013-04-25 13:19:00,
2013-04-25 06:24:00,49.7,43.1,29.88,WSW,245,10.4,10.4,78,0.00,CLR,,0.00,WeatherDisplay:10.37,2013-04-25 13:24:00,
2013-04-25 06:29:00,49.9,43.3,29.88,WSW,240,11.5,11.5,78,0.00,CLR,,0.00,WeatherDisplay:10.37,2013-04-25 13:29:00,
2013-04-25 06:34:00,50.1,43.5,29.89,WSW,250,5.8,5.8,78,0.00,CLR,,0.00,WeatherDisplay:10.37,2013-04-25 13:34:00,
2013-04-25 06:39:00,50.3,43.7,29.89,WSW,246,9.2,9.2,78,0.00,CLR,,0.00,WeatherDisplay:10.37,2013-04-25 13:39:00,
2013-04-25 06:44:00,50.5,43.9,29.89,SW,236,10.4,10.4,78,0.00,CLR,,0.00,WeatherDisplay:10.37,2013-04-25 13:44:00,
2013-04-25 06:49:00,50.6,44.0,29.89,West,268,11.5,11.5,78,0.00,CLR,,0.00,WeatherDisplay:10.37,2013-04-25 13:49:00,
2013-04-25 06:54:00,50.9,43.9,29.89,SW,230,11.5,11.5,77,0.00,CLR,,0.00,WeatherDisplay:10.37,2013-04-25 13:54:00,
2013-04-25 06:59:00,51.1,44.1,29.90,West,261,10.4,10.4,77,0.00,CLR,,0.00,WeatherDisplay:10.37,2013-04-25 13:59:00,
2013-04-25 07:04:00,51.4,44.1,29.90,WSW,251,10.4,10.4,76,0.00,CLR,,0.00,WeatherDisplay:10.37,2013-04-25 14:04:00,
2013-04-25 07:09:00,51.7,44.4,29.90,West,260,11.5,11.5,76,0.00,CLR,,0.00,WeatherDisplay:10.37,2013-04-25 14:09:00,
2013-04-25 07:14:00,52.0,44.3,29.90,WSW,254,10.0,10.0,75,0.00,CLR,,0.00,WeatherDisplay:10.37,2013-04-25 14:14:00,
2013-04-25 07:19:00,52.4,44.7,29.90,SW,227,8.1,8.1,75,0.00,CLR,,0.00,WeatherDisplay:10.37,2013-04-25 14:19:00,
2013-04-25 07:24:00,52.7,44.6,29.90,SW,221,9.2,9.2,74,0.00,CLR,,0.00,WeatherDisplay:10.37,2013-04-25 14:24:00,
2013-04-25 07:29:00,53.0,44.6,29.90,WSW,238,11.5,11.5,73,0.00,CLR,,0.00,WeatherDisplay:10.37,2013-04-25 14:29:00,
2013-04-25 07:34:00,53.3,44.9,29.90,SW,230,11.5,11.5,73,0.00,CLR,,0.00,WeatherDisplay:10.37,2013-04-25 14:34:00,
2013-04-25 07:39:00,53.7,44.9,29.90,WSW,237,12.7,12.7,72,0.00,CLR,,0.00,WeatherDisplay:10.37,2013-04-25 14:39:00,
2013-04-25 07:44:00,54.1,44.9,29.90,SW,236,15.0,15.0,71,0.00,CLR,,0.00,WeatherDisplay:10.37,2013-04-25 14:44:00,
2013-04-25 07:49:00,54.5,44.9,29.90,WSW,238,10.4,10.4,70,0.00,CLR,,0.00,WeatherDisplay:10.37,2013-04-25 14:49:00,
2013-04-25 07:54:00,54.9,44.9,29.90,SW,227,15.0,15.0,69,0.00,CLR,,0.00,WeatherDisplay:10.37,2013-04-25 14:54:00,
2013-04-25 07:59:00,55.3,44.9,29.90,SW,234,15.0,15.0,68,0.00,CLR,,0.00,WeatherDisplay:10.37,2013-04-25 14:59:00,
2013-04-25 08:04:00,55.9,45.1,29.91,SW,227,11.5,11.5,67,0.00,CLR,,0.00,WeatherDisplay:10.37,2013-04-25 15:04:00,
2013-04-25 08:09:00,56.2,45.0,29.91,SW,236,12.7,12.7,66,0.00,CLR,,0.00,WeatherDisplay:10.37,2013-04-25 15:09:00,
2013-04-25 08:14:00,56.5,45.3,29.90,SW,227,11.5,11.5,66,0.00,CLR,,0.00,WeatherDisplay:10.37,2013-04-25 15:14:00,
2013-04-25 08:19:00,57.0,45.3,29.90,WSW,240,16.1,16.1,65,0.00,CLR,,0.00,WeatherDisplay:10.37,2013-04-25 15:19:00,
2013-04-25 08:24:00,57.3,45.2,29.91,SW,234,18.4,18.4,64,0.00,CLR,,0.00,WeatherDisplay:10.37,2013-04-25 15:24:00,
2013-04-25 08:29:00,57.4,45.3,29.91,SW,232,15.0,15.0,64,0.00,CLR,,0.00,WeatherDisplay:10.37,2013-04-25 15:29:00,
2013-04-25 08:34:00,57.8,45.3,29.91,SSW,206,16.1,16.1,63,0.00,CLR,,0.00,WeatherDisplay:10.37,2013-04-25 15:34:00,
2013-04-25 08:39:00,58.2,45.7,29.91,SW,221,16.0,16.0,63,0.00,CLR,,0.00,WeatherDisplay:10.37,2013-04-25 15:39:00,
2013-04-25 08:44:00,57.9,45.8,29.91,SSW,211,16.1,16.1,64,0.00,CLR,,0.00,WeatherDisplay:10.37,2013-04-25 15:44:00,
2013-04-25 08:49:00,58.1,45.6,29.91,SW,229,17.3,17.3,63,0.00,CLR,,0.00,WeatherDisplay:10.37,2013-04-25 15:49:00,
2013-04-25 08:54:00,58.3,45.8,29.91,SSW,200,19.6,19.6,63,0.00,CLR,,0.00,WeatherDisplay:10.37,2013-04-25 15:54:00,
2013-04-25 08:59:00,58.4,45.4,29.91,SW,222,19.6,19.6,62,0.00,CLR,,0.00,WeatherDisplay:10.37,2013-04-25 15:59:00,
2013-04-25 09:04:00,59.0,45.6,29.92,SSW,199,17.3,17.3,61,0.00,CLR,,0.00,WeatherDisplay:10.37,2013-04-25 16:04:00,
2013-04-25 09:09:00,59.0,46.0,29.92,SW,214,19.6,19.6,62,0.00,CLR,,0.00,WeatherDisplay:10.37,2013-04-25 16:09:00,
2013-04-25 09:14:00,59.0,45.1,29.92,SSW,213,19.6,19.6,60,0.00,CLR,,0.00,WeatherDisplay:10.37,2013-04-25 16:14:00,
2013-04-25 09:19:00,59.1,45.2,29.92,South,188,19.6,19.6,60,0.00,CLR,,0.00,WeatherDisplay:10.37,2013-04-25 16:19:00,
2013-04-25 09:24:00,59.7,45.3,29.92,SW,217,19.6,19.6,59,0.00,CLR,,0.00,WeatherDisplay:10.37,2013-04-25 16:24:00,
2013-04-25 09:29:00,60.4,45.1,29.92,SSW,209,19.6,19.6,57,0.00,CLR,,0.00,WeatherDisplay:10.37,2013-04-25 16:29:00,
2013-04-25 09:34:00,60.4,45.1,29.92,SSW,213,21.9,21.9,57,0.00,CLR,,0.00,WeatherDisplay:10.37,2013-04-25 16:34:00,
2013-04-25 09:39:00,61.1,45.3,29.92,SW,222,15.0,15.0,56,0.00,CLR,,0.00,WeatherDisplay:10.37,2013-04-25 16:39:00,
2013-04-25 09:44:00,61.7,45.4,29.92,SSW,213,18.4,18.4,55,0.00,CLR,,0.00,WeatherDisplay:10.37,2013-04-25 16:44:00,
2013-04-25 09:49:00,61.6,44.8,29.92,SSW,192,21.9,21.9,54,0.00,CLR,,0.00,WeatherDisplay:10.37,2013-04-25 16:49:00,
2013-04-25 09:54:00,62.7,45.8,29.91,SSW,200,16.1,16.1,54,0.00,CLR,,0.00,WeatherDisplay:10.37,2013-04-25 16:54:00,
2013-04-25 09:59:00,63.2,45.3,29.91,SSW,207,13.8,13.8,52,0.00,CLR,,0.00,WeatherDisplay:10.37,2013-04-25 16:59:00,
2013-04-25 10:04:00,63.4,44.9,29.92,SW,221,19.6,19.6,51,0.00,CLR,,0.00,WeatherDisplay:10.37,2013-04-25 17:04:00,
2013-04-25 10:09:00,64.1,45.1,29.91,SW,236,19.6,19.6,50,0.00,CLR,,0.00,WeatherDisplay:10.37,2013-04-25 17:09:00,
2013-04-25 10:14:00,64.1,44.5,29.92,SW,225,19.6,19.6,49,0.00,CLR,,0.00,WeatherDisplay:10.37,2013-04-25 17:14:00,
2013-04-25 10:19:00,64.8,44.6,29.92,SW,228,19.6,19.6,48,0.00,CLR,,0.00,WeatherDisplay:10.37,2013-04-25 17:19:00,
2013-04-25 10:24:00,64.7,45.1,29.92,SW,235,19.0,19.0,49,0.00,CLR,,0.00,WeatherDisplay:10.37,2013-04-25 17:24:00,
2013-04-25 10:29:00,65.0,44.8,29.92,SW,215,16.1,16.1,48,0.00,CLR,,0.00,WeatherDisplay:10.37,2013-04-25 17:29:00,
2013-04-25 10:34:00,65.4,44.6,29.92,SW,226,20.7,20.7,47,0.00,CLR,,0.00,WeatherDisplay:10.37,2013-04-25 17:34:00,
2013-04-25 10:39:00,66.1,45.3,29.92,SSW,213,19.6,19.6,47,0.00,CLR,,0.00,WeatherDisplay:10.37,2013-04-25 17:39:00,
2013-04-25 10:44:00,66.3,44.9,29.92,SW,215,17.3,17.3,46,0.00,CLR,,0.00,WeatherDisplay:10.37,2013-04-25 17:44:00,
2013-04-25 10:49:00,66.8,45.3,29.92,SSW,194,18.4,18.4,46,0.00,CLR,,0.00,WeatherDisplay:10.37,2013-04-25 17:49:00,
2013-04-25 10:54:00,66.9,44.9,29.92,South,172,16.1,16.1,45,0.00,CLR,,0.00,WeatherDisplay:10.37,2013-04-25 17:54:00,
2013-04-25 10:59:00,67.6,44.9,29.91,SW,234,18.4,18.4,44,0.00,CLR,,0.00,WeatherDisplay:10.37,2013-04-25 17:59:00,
2013-04-25 11:07:00,67.8,45.1,29.92,SW,225,19.6,19.6,44,0.00,CLR,,0.00,WeatherDisplay:10.37,2013-04-25 18:07:00,
2013-04-25 11:12:00,68.3,44.9,29.91,South,190,19.0,19.0,43,0.00,CLR,,0.00,WeatherDisplay:10.37,2013-04-25 18:12:00,
2013-04-25 11:20:00,68.2,44.8,29.91,SW,223,19.6,19.6,43,0.00,CLR,,0.00,WeatherDisplay:10.37,2013-04-25 18:20:00,
2013-04-25 11:31:00,69.5,45.4,29.91,WSW,240,19.6,19.6,42,0.00,CLR,,0.00,WeatherDisplay:10.37,2013-04-25 18:31:00,
2013-04-25 11:41:00,70.4,44.9,29.91,SW,223,21.9,21.9,40,0.00,CLR,,0.00,WeatherDisplay:10.37,2013-04-25 18:41:00,
2013-04-25 11:46:00,70.6,45.1,29.91,West,270,21.9,21.9,40,0.00,CLR,,0.00,WeatherDisplay:10.37,2013-04-25 18:46:00,
2013-04-25 11:51:00,70.6,44.4,29.91,SSW,213,21.9,21.9,39,0.00,CLR,,0.00,WeatherDisplay:10.37,2013-04-25 18:51:00,
2013-04-25 11:57:00,70.4,44.3,29.91,SW,225,20.7,20.7,39,0.00,CLR,,0.00,WeatherDisplay:10.37,2013-04-25 18:57:00,
2013-04-25 12:02:00,70.2,44.1,29.91,SSW,199,18.4,18.4,39,0.00,CLR,,0.00,WeatherDisplay:10.37,2013-04-25 19:02:00,
2013-04-25 12:10:00,70.8,43.2,29.91,SW,229,20.7,20.7,37,0.00,CLR,,0.00,WeatherDisplay:10.37,2013-04-25 19:10:00,
2013-04-25 12:15:00,71.3,43.7,29.91,SSW,203,21.9,21.9,37,0.00,CLR,,0.00,WeatherDisplay:10.37,2013-04-25 19:15:00,
2013-04-25 12:20:00,71.3,43.7,29.91,SSW,211,15.0,15.0,37,0.00,CLR,,0.00,WeatherDisplay:10.37,2013-04-25 19:20:00,
2013-04-25 12:25:00,72.5,43.3,29.90,SSW,207,16.1,16.1,35,0.00,CLR,,0.00,WeatherDisplay:10.37,2013-04-25 19:25:00,
2013-04-25 12:30:00,72.4,43.2,29.90,SW,222,17.3,17.3,35,0.00,CLR,,0.00,WeatherDisplay:10.37,2013-04-25 19:30:00,
2013-04-25 12:35:00,73.0,43.7,29.90,WSW,254,16.0,16.0,35,0.00,CLR,,0.00,WeatherDisplay:10.37,2013-04-25 19:35:00,
2013-04-25 12:40:00,72.8,43.5,29.89,South,191,19.6,19.6,35,0.00,CLR,,0.00,WeatherDisplay:10.37,2013-04-25 19:40:00,
2013-04-25 12:45:00,73.0,43.0,29.90,SW,214,19.6,19.6,34,0.00,CLR,,0.00,WeatherDisplay:10.37,2013-04-25 19:45:00,
2013-04-25 12:50:00,73.3,43.2,29.89,SSW,193,20.7,20.7,34,0.00,CLR,,0.00,WeatherDisplay:10.37,2013-04-25 19:50:00,
2013-04-25 12:55:00,73.7,43.6,29.88,WSW,237,17.3,17.3,34,0.00,CLR,,0.00,WeatherDisplay:10.37,2013-04-25 19:55:00,
2013-04-25 13:00:00,73.8,42.9,29.88,WSW,242,19.6,19.6,33,0.00,CLR,,0.00,WeatherDisplay:10.37,2013-04-25 20:00:00,
2013-04-25 13:05:00,73.6,42.7,29.88,SW,221,22.0,22.0,33,0.00,CLR,,0.00,WeatherDisplay:10.37,2013-04-25 20:05:00,
2013-04-25 13:10:00,74.0,43.1,29.88,SW,226,20.7,20.7,33,0.00,CLR,,0.00,WeatherDisplay:10.37,2013-04-25 20:10:00,
2013-04-25 13:15:00,74.3,42.5,29.88,SSW,204,21.9,21.9,32,0.00,CLR,,0.00,WeatherDisplay:10.37,2013-04-25 20:15:00,
2013-04-25 13:20:00,74.0,43.1,29.88,SSW,205,20.7,20.7,33,0.00,CLR,,0.00,WeatherDisplay:10.37,2013-04-25 20:20:00,
2013-04-25 13:25:00,74.3,42.5,29.88,SSW,200,19.6,19.6,32,0.00,CLR,,0.00,WeatherDisplay:10.37,2013-04-25 20:25:00,
2013-04-25 13:30:00,74.3,42.5,29.88,SSW,203,21.9,21.9,32,0.00,CLR,,0.00,WeatherDisplay:10.37,2013-04-25 20:30:00,
2013-04-25 13:35:00,74.4,42.6,29.88,SSW,203,20.7,20.7,32,0.00,CLR,,0.00,WeatherDisplay:10.37,2013-04-25 20:35:00,
2013-04-25 13:40:00,74.6,42.8,29.88,SW,215,21.9,21.9,32,0.00,CLR,,0.00,WeatherDisplay:10.37,2013-04-25 20:40:00,
2013-04-25 13:45:00,74.4,42.6,29.88,SSW,196,20.7,20.7,32,0.00,CLR,,0.00,WeatherDisplay:10.37,2013-04-25 20:45:00,
2013-04-25 13:50:00,75.0,42.3,29.87,SSW,209,18.4,18.4,31,0.00,CLR,,0.00,WeatherDisplay:10.37,2013-04-25 20:50:00,
2013-04-25 13:55:00,75.4,42.7,29.87,SW,216,20.7,20.7,31,0.00,CLR,,0.00,WeatherDisplay:10.37,2013-04-25 20:55:00,
2013-04-25 14:00:00,74.9,42.2,29.87,SW,217,20.7,20.7,31,0.00,CLR,,0.00,WeatherDisplay:10.37,2013-04-25 21:00:00,
2013-04-25 14:06:00,75.2,42.5,29.88,SSW,195,21.9,21.9,31,0.00,CLR,,0.00,WeatherDisplay:10.37,2013-04-25 21:06:00,
2013-04-25 14:11:00,75.3,42.6,29.88,WSW,239,20.7,20.7,31,0.00,CLR,,0.00,WeatherDisplay:10.37,2013-04-25 21:11:00,
2013-04-25 14:16:00,75.2,42.5,29.87,SSW,206,21.9,21.9,31,0.00,CLR,,0.00,WeatherDisplay:10.37,2013-04-25 21:16:00,
2013-04-25 14:21:00,75.1,42.4,29.87,SW,228,23.0,23.0,31,0.00,CLR,,0.00,WeatherDisplay:10.37,2013-04-25 21:21:00,
2013-04-25 14:26:00,75.1,42.4,29.87,SSW,195,26.5,26.5,31,0.00,CLR,,0.00,WeatherDisplay:10.37,2013-04-25 21:26:00,
2013-04-25 14:31:00,75.5,42.7,29.87,SSW,192,23.0,23.0,31,0.00,CLR,,0.00,WeatherDisplay:10.37,2013-04-25 21:31:00,
2013-04-25 14:36:00,75.4,41.8,29.87,SW,221,21.9,21.9,30,0.00,CLR,,0.00,WeatherDisplay:10.37,2013-04-25 21:36:00,
2013-04-25 14:41:00,75.6,42.8,29.87,South,191,24.2,24.2,31,0.00,CLR,,0.00,WeatherDisplay:10.37,2013-04-25 21:41:00,
2013-04-25 14:46:00,76.0,43.2,29.87,SW,216,21.9,21.9,31,0.00,CLR,,0.00,WeatherDisplay:10.37,2013-04-25 21:46:00,
2013-04-25 14:51:00,75.8,43.0,29.87,SSW,202,20.7,20.7,31,0.00,CLR,,0.00,WeatherDisplay:10.37,2013-04-25 21:51:00,
2013-04-25 14:56:00,75.8,43.8,29.86,SSW,206,25.3,25.3,32,0.00,CLR,,0.00,WeatherDisplay:10.37,2013-04-25 21:56:00,
2013-04-25 15:01:00,76.5,44.4,29.86,SW,220,23.0,23.0,32,0.00,CLR,,0.00,WeatherDisplay:10.37,2013-04-25 22:01:00,
2013-04-25 15:06:00,76.1,44.1,29.86,SSW,205,21.9,21.9,32,0.00,CLR,,0.00,WeatherDisplay:10.37,2013-04-25 22:06:00,
2013-04-25 15:11:00,75.7,44.5,29.86,SSW,197,20.0,20.0,33,0.00,CLR,,0.00,WeatherDisplay:10.37,2013-04-25 22:11:00,
2013-04-25 15:16:00,75.9,44.7,29.86,West,260,19.6,19.6,33,0.00,CLR,,0.00,WeatherDisplay:10.37,2013-04-25 22:16:00,
2013-04-25 15:21:00,75.8,44.6,29.86,SW,217,25.3,25.3,33,0.00,CLR,,0.00,WeatherDisplay:10.37,2013-04-25 22:21:00,
2013-04-25 15:26:00,75.6,44.5,29.86,SSW,199,28.0,28.0,33,0.00,CLR,,0.00,WeatherDisplay:10.37,2013-04-25 22:26:00,
2013-04-25 15:31:00,75.7,44.5,29.86,WSW,258,25.3,25.3,33,0.00,CLR,,0.00,WeatherDisplay:10.37,2013-04-25 22:31:00,
2013-04-25 15:36:00,75.7,44.5,29.85,SSW,210,23.0,23.0,33,0.00,CLR,,0.00,WeatherDisplay:10.37,2013-04-25 22:36:00,
2013-04-25 15:41:00,76.0,44.8,29.85,SSW,206,26.5,26.5,33,0.00,CLR,,0.00,WeatherDisplay:10.37,2013-04-25 22:41:00,
2013-04-25 15:46:00,76.7,44.6,29.85,SSW,209,26.5,26.5,32,0.00,CLR,,0.00,WeatherDisplay:10.37,2013-04-25 22:46:00,
2013-04-25 15:51:00,75.7,44.5,29.85,SSW,194,32.2,32.2,33,0.00,CLR,,0.00,WeatherDisplay:10.37,2013-04-25 22:51:00,
2013-04-25 15:56:00,76.3,44.3,29.85,SW,217,29.9,29.9,32,0.00,CLR,,0.00,WeatherDisplay:10.37,2013-04-25 22:56:00,
2013-04-25 16:01:00,76.3,43.4,29.84,SSW,210,34.5,34.5,31,0.00,CLR,,0.00,WeatherDisplay:10.37,2013-04-25 23:01:00,
2013-04-25 16:06:00,76.8,43.9,29.85,SSW,202,26.5,26.5,31,0.00,CLR,,0.00,WeatherDisplay:10.37,2013-04-25 23:06:00,
2013-04-25 16:11:00,77.6,44.6,29.85,SSW,196,19.6,19.6,31,0.00,CLR,,0.00,WeatherDisplay:10.37,2013-04-25 23:11:00,
2013-04-25 16:16:00,77.0,43.2,29.85,WSW,240,23.0,23.0,30,0.00,CLR,,0.00,WeatherDisplay:10.37,2013-04-25 23:16:00,
2013-04-25 16:21:00,77.2,44.2,29.85,SSW,205,19.6,19.6,31,0.00,CLR,,0.00,WeatherDisplay:10.37,2013-04-25 23:21:00,
2013-04-25 16:26:00,76.4,43.5,29.85,SSE,163,15.0,15.0,31,0.00,CLR,,0.00,WeatherDisplay:10.37,2013-04-25 23:26:00,
2013-04-25 16:31:00,76.8,43.0,29.85,SW,232,26.5,26.5,30,0.00,CLR,,0.00,WeatherDisplay:10.37,2013-04-25 23:31:00,
2013-04-25 16:36:00,76.1,44.1,29.86,South,183,21.9,21.9,32,0.00,CLR,,0.00,WeatherDisplay:10.37,2013-04-25 23:36:00,
2013-04-25 16:41:00,76.0,43.2,29.86,WSW,237,24.0,24.0,31,0.00,CLR,,0.00,WeatherDisplay:10.37,2013-04-25 23:41:00,
2013-04-25 16:46:00,76.0,44.8,29.86,SW,223,19.6,19.6,33,0.00,CLR,,0.00,WeatherDisplay:10.37,2013-04-25 23:46:00,
2013-04-25 16:51:00,76.5,43.6,29.86,WSW,254,23.0,23.0,31,0.00,CLR,,0.00,WeatherDisplay:10.37,2013-04-25 23:51:00,
2013-04-25 16:56:00,76.5,43.6,29.86,SSW,206,19.6,19.6,31,0.00,CLR,,0.00,WeatherDisplay:10.37,2013-04-25 23:56:00,
2013-04-25 17:01:00,76.4,43.5,29.87,SW,229,23.0,23.0,31,0.00,CLR,,0.00,WeatherDisplay:10.37,2013-04-26 00:01:00,
2013-04-25 17:06:00,76.3,43.4,29.87,SW,235,21.0,21.0,31,0.00,CLR,,0.00,WeatherDisplay:10.37,2013-04-26 00:06:00,
2013-04-25 17:11:00,75.9,43.9,29.87,WSW,242,26.5,26.5,32,0.00,CLR,,0.00,WeatherDisplay:10.37,2013-04-26 00:11:00,
2013-04-25 17:16:00,75.6,43.7,29.87,WSW,252,21.0,21.0,32,0.00,CLR,,0.00,WeatherDisplay:10.37,2013-04-26 00:16:00,
2013-04-25 17:21:00,75.2,44.1,29.88,WSW,240,21.9,21.9,33,0.00,CLR,,0.00,WeatherDisplay:10.37,2013-04-26 00:21:00,
2013-04-25 17:26:00,75.0,43.9,29.88,SW,236,28.8,28.8,33,0.00,CLR,,0.00,WeatherDisplay:10.37,2013-04-26 00:26:00,
2013-04-25 17:31:00,74.6,44.4,29.88,SW,235,26.5,26.5,34,0.00,CLR,,0.00,WeatherDisplay:10.37,2013-04-26 00:31:00,
2013-04-25 17:40:00,74.1,43.9,29.88,SW,236,27.6,27.6,34,0.00,CLR,,0.00,WeatherDisplay:10.37,2013-04-26 00:40:00,
2013-04-25 17:45:00,74.2,43.2,29.89,SW,230,21.9,21.9,33,0.00,CLR,,0.00,WeatherDisplay:10.37,2013-04-26 00:45:00,
2013-04-25 17:52:00,74.1,43.9,29.89,WSW,254,26.5,26.5,34,0.00,CLR,,0.00,WeatherDisplay:10.37,2013-04-26 00:52:00,
2013-04-25 17:57:00,73.8,43.7,29.89,SW,218,21.9,21.9,34,0.00,CLR,,0.00,WeatherDisplay:10.37,2013-04-26 00:57:00,
2013-04-25 18:02:00,73.9,43.0,29.89,West,259,18.4,18.4,33,0.00,CLR,,0.00,WeatherDisplay:10.37,2013-04-26 01:02:00,
2013-04-25 18:07:00,74.0,43.8,29.90,SW,218,19.6,19.6,34,0.00,CLR,,0.00,WeatherDisplay:10.37,2013-04-26 01:07:00,
2013-04-25 18:12:00,74.0,43.1,29.90,WSW,254,25.3,25.3,33,0.00,CLR,,0.00,WeatherDisplay:10.37,2013-04-26 01:12:00,
2013-04-25 18:17:00,73.3,44.0,29.90,WSW,258,26.5,26.5,35,0.00,CLR,,0.00,WeatherDisplay:10.37,2013-04-26 01:17:00,
2013-04-25 18:22:00,73.2,43.9,29.90,WSW,254,23.0,23.0,35,0.00,CLR,,0.00,WeatherDisplay:10.37,2013-04-26 01:22:00,
2013-04-25 18:27:00,72.7,43.5,29.90,WSW,255,19.6,19.6,35,0.00,CLR,,0.00,WeatherDisplay:10.37,2013-04-26 01:27:00,
2013-04-25 18:32:00,72.2,43.0,29.91,WSW,246,21.9,21.9,35,0.00,CLR,,0.00,WeatherDisplay:10.37,2013-04-26 01:32:00,
2013-04-25 20:03:00,66.0,42.2,29.92,WSW,253,15.0,15.0,42,0.00,CLR,,0.00,WeatherDisplay:10.37,2013-04-26 03:03:00,
2013-04-25 20:14:00,65.9,42.1,29.93,West,265,17.3,17.3,42,0.00,CLR,,0.00,WeatherDisplay:10.37,2013-04-26 03:14:00,
2013-04-25 20:19:00,65.7,42.0,29.93,WSW,251,15.0,15.0,42,0.00,CLR,,0.00,WeatherDisplay:10.37,2013-04-26 03:19:00,
2013-04-25 20:24:00,65.7,41.3,29.93,West,264,11.5,11.5,41,0.00,CLR,,0.00,WeatherDisplay:10.37,2013-04-26 03:24:00,
2013-04-25 20:31:00,65.5,41.8,29.93,WSW,257,11.5,11.5,42,0.00,CLR,,0.00,WeatherDisplay:10.37,2013-04-26 03:31:00,
2013-04-25 20:36:00,65.7,41.3,29.93,WSW,255,17.3,17.3,41,0.00,CLR,,0.00,WeatherDisplay:10.37,2013-04-26 03:36:00,
2013-04-25 20:41:00,65.8,40.8,29.93,WSW,252,17.3,17.3,40,0.00,CLR,,0.00,WeatherDisplay:10.37,2013-04-26 03:41:00,
2013-04-25 20:46:00,65.4,40.4,29.93,WSW,249,15.0,15.0,40,0.00,CLR,,0.00,WeatherDisplay:10.37,2013-04-26 03:46:00,
2013-04-25 20:51:00,65.0,41.3,29.93,West,265,15.0,15.0,42,0.00,CLR,,0.00,WeatherDisplay:10.37,2013-04-26 03:51:00,
2013-04-25 20:56:00,64.7,41.1,29.94,West,272,18.4,18.4,42,0.00,CLR,,0.00,WeatherDisplay:10.37,2013-04-26 03:56:00,
2013-04-25 21:01:00,65.0,40.1,29.93,SW,234,15.0,15.0,40,0.00,CLR,,0.00,WeatherDisplay:10.37,2013-04-26 04:01:00,
2013-04-25 21:02:00,65.0,40.1,29.93,WSW,245,17.3,17.3,40,0.00,CLR,,0.00,WeatherDisplay:10.37,2013-04-26 04:02:00,
2013-04-25 21:03:00,65.1,40.2,29.93,WSW,253,18.4,18.4,40,0.00,CLR,,0.00,WeatherDisplay:10.37,2013-04-26 04:03:00,
2013-04-25 21:08:00,65.1,40.2,29.93,WSW,256,11.5,11.5,40,0.00,CLR,,0.00,WeatherDisplay:10.37,2013-04-26 04:08:00,
2013-04-25 21:13:00,65.2,39.6,29.94,West,261,16.1,16.1,39,0.00,CLR,,0.00,WeatherDisplay:10.37,2013-04-26 04:13:00,
2013-04-25 21:18:00,65.0,40.1,29.94,West,261,16.1,16.1,40,0.00,CLR,,0.00,WeatherDisplay:10.37,2013-04-26 04:18:00,
2013-04-25 21:23:00,64.7,41.1,29.94,West,259,17.3,17.3,42,0.00,CLR,,0.00,WeatherDisplay:10.37,2013-04-26 04:23:00,
2013-04-25 21:28:00,64.6,40.4,29.94,West,275,13.8,13.8,41,0.00,CLR,,0.00,WeatherDisplay:10.37,2013-04-26 04:28:00,
2013-04-25 21:33:00,64.6,39.7,29.94,WNW,283,12.7,12.7,40,0.00,CLR,,0.00,WeatherDisplay:10.37,2013-04-26 04:33:00,
2013-04-25 21:38:00,64.4,41.4,29.94,West,268,13.0,13.0,43,0.00,CLR,,0.00,WeatherDisplay:10.37,2013-04-26 04:38:00,
2013-04-25 21:43:00,64.2,40.6,29.95,WNW,285,12.0,12.0,42,0.00,CLR,,0.00,WeatherDisplay:10.37,2013-04-26 04:43:00,
2013-04-25 21:48:00,64.4,40.2,29.95,West,280,11.5,11.5,41,0.00,CLR,,0.00,WeatherDisplay:10.37,2013-04-26 04:48:00,
2013-04-25 21:53:00,64.5,40.3,29.95,NW,309,8.1,8.1,41,0.00,CLR,,0.00,WeatherDisplay:10.37,2013-04-26 04:53:00,
2013-04-25 21:58:00,64.4,39.5,29.95,WNW,298,9.2,9.2,40,0.00,CLR,,0.00,WeatherDisplay:10.37,2013-04-26 04:58:00,
2013-04-25 22:03:00,64.5,39.6,29.94,WNW,290,9.2,9.2,40,0.00,CLR,,0.00,WeatherDisplay:10.37,2013-04-26 05:03:00,
2013-04-25 22:08:00,64.4,38.9,29.95,West,275,9.2,9.2,39,0.00,CLR,,0.00,WeatherDisplay:10.37,2013-04-26 05:08:00,
2013-04-25 22:13:00,64.3,38.1,29.94,WNW,282,14.0,14.0,38,0.00,CLR,,0.00,WeatherDisplay:10.37,2013-04-26 05:13:00,
2013-04-25 22:18:00,64.9,37.3,29.94,WNW,282,11.5,11.5,36,0.00,CLR,,0.00,WeatherDisplay:10.37,2013-04-26 05:18:00,
2013-04-25 22:26:00,64.9,37.3,29.95,WSW,250,9.2,9.2,36,0.00,CLR,,0.00,WeatherDisplay:10.37,2013-04-26 05:26:00,
2013-04-25 22:31:00,64.9,36.6,29.95,West,265,11.5,11.5,35,0.00,CLR,,0.00,WeatherDisplay:10.37,2013-04-26 05:31:00,
2013-04-25 22:36:00,65.1,36.8,29.95,SW,235,6.9,6.9,35,0.00,CLR,,0.00,WeatherDisplay:10.37,2013-04-26 05:36:00,
2013-04-25 22:41:00,64.3,37.5,29.95,SW,227,9.2,9.2,37,0.00,CLR,,0.00,WeatherDisplay:10.37,2013-04-26 05:41:00,
2013-04-25 22:46:00,63.6,36.1,29.95,WSW,249,6.9,6.9,36,0.00,CLR,,0.00,WeatherDisplay:10.37,2013-04-26 05:46:00,
2013-04-25 22:51:00,63.5,36.7,29.95,WSW,240,5.8,5.8,37,0.00,CLR,,0.00,WeatherDisplay:10.37,2013-04-26 05:51:00,
2013-04-25 22:56:00,63.1,37.1,29.95,WSW,248,7.0,7.0,38,0.00,CLR,,0.00,WeatherDisplay:10.37,2013-04-26 05:56:00,
2013-04-25 23:01:00,62.5,37.8,29.94,SW,229,10.4,10.4,40,0.00,CLR,,0.00,WeatherDisplay:10.37,2013-04-26 06:01:00,
2013-04-25 23:08:00,62.8,37.5,29.95,WSW,242,11.5,11.5,39,0.00,CLR,,0.00,WeatherDisplay:10.37,2013-04-26 06:08:00,
2013-04-25 23:13:00,63.1,37.7,29.95,SW,232,5.0,5.0,39,0.00,CLR,,0.00,WeatherDisplay:10.37,2013-04-26 06:13:00,
2013-04-25 23:18:00,62.7,37.4,29.95,WSW,257,4.6,4.6,39,0.00,CLR,,0.00,WeatherDisplay:10.37,2013-04-26 06:18:00,
2013-04-25 23:27:00,62.8,37.5,29.95,WSW,245,7.0,7.0,39,0.00,CLR,,0.00,WeatherDisplay:10.37,2013-04-26 06:27:00,
2013-04-25 23:33:00,62.5,37.8,29.95,West,260,11.5,11.5,40,0.00,CLR,,0.00,WeatherDisplay:10.37,2013-04-26 06:33:00,
2013-04-25 23:38:00,62.5,37.8,29.95,WSW,252,6.9,6.9,40,0.00,CLR,,0.00,WeatherDisplay:10.37,2013-04-26 06:38:00,
2013-04-25 23:43:00,62.5,38.5,29.95,West,261,10.4,10.4,41,0.00,CLR,,0.00,WeatherDisplay:10.37,2013-04-26 06:43:00,
2013-04-25 23:48:00,63.4,38.6,29.95,West,261,12.7,12.7,40,0.00,CLR,,0.00,WeatherDisplay:10.37,2013-04-26 06:48:00,
2013-04-25 23:53:00,63.6,39.5,29.95,West,261,17.3,17.3,41,0.00,CLR,,0.00,WeatherDisplay:10.37,2013-04-26 06:53:00,
2013-04-25 23:58:00,63.9,39.7,29.95,West,261,10.4,10.4,41,0.00,CLR,,0.00,WeatherDisplay:10.37,2013-04-26 06:58:00,